TimeAKDT,TemperatureF,Dew PointF,Humidity,Sea Level PressureIn,VisibilityMPH,Wind Direction,Wind SpeedMPH,Gust SpeedMPH,PrecipitationIn,Events,Conditions,WindDirDegrees,DateUTC
12:53 AM,37.0,23.0,57,30.43,10.0,NNE,5.8,-,N/A,,Partly Cloudy,30,2013-05-21 08:53:00
1:53 AM,35.1,23.0,61,30.44,10.0,Calm,Calm,-,N/A,,Partly Cloudy,0,2013-05-21 09:53:00
2:53 AM,34.0,19.9,56,30.45,10.0,NE,6.9,-,N/A,,Partly Cloudy,50,2013-05-21 10:53:00
3:53 AM,33.1,19.9,59,30.46,10.0,NE,4.6,-,N/A,,Scattered Clouds,50,2013-05-21 11:53:00
4:53 AM,30.0,21.0,69,30.46,10.0,NNE,4.6,-,N/A,,Scattered Clouds,30,2013-05-21 12:53:00
5:53 AM,33.1,23.0,66,30.46,10.0,NNE,4.6,-,N/A,,Scattered Clouds,30,2013-05-21 13:53:00
6:53 AM,37.0,19.9,50,30.46,10.0,NE,4.6,-,N/A,,Scattered Clouds,50,2013-05-21 14:53:00
7:53 AM,39.0,19.0,45,30.45,10.0,Calm,Calm,-,N/A,,Mostly Cloudy,0,2013-05-21 15:53:00
8:53 AM,43.0,19.0,38,30.43,10.0,NNE,3.5,-,N/A,,Mostly Cloudy,20,2013-05-21 16:53:00
9:53 AM,46.0,17.1,31,30.41,10.0,East,4.6,-,N/A,,Mostly Cloudy,100,2013-05-21 17:53:00
10:53 AM,50.0,16.0,26,30.40,10.0,ENE,5.8,-,N/A,,Mostly Cloudy,70,2013-05-21 18:53:00
11:53 AM,53.1,15.1,22,30.38,10.0,Variable,5.8,-,N/A,,Mostly Cloudy,0,2013-05-21 19:53:00
12:53 PM,54.0,18.0,24,30.35,10.0,Variable,5.8,-,0.00,,Mostly Cloudy,0,2013-05-21 20:53:00
1:53 PM,57.0,16.0,20,30.33,10.0,Variable,6.9,-,N/A,,Scattered Clouds,0,2013-05-21 21:53:00
2:53 PM,59.0,18.0,20,30.30,10.0,ENE,6.9,-,N/A,,Partly Cloudy,70,2013-05-21 22:53:00
3:53 PM,59.0,16.0,19,30.27,10.0,Calm,Calm,-,N/A,,Scattered Clouds,0,2013-05-21 23:53:00
4:53 PM,60.8,12.2,15,30.25,10.0,East,9.2,-,N/A,,Partly Cloudy,90,2013-05-22 00:53:00
5:53 PM,62.1,15.1,16,30.22,10.0,East,5.8,-,N/A,,Partly Cloudy,90,2013-05-22 01:53:00
6:53 PM,62.1,15.1,16,30.20,10.0,East,5.8,-,N/A,,Partly Cloudy,90,2013-05-22 02:53:00
7:53 PM,63.0,14.0,15,30.17,10.0,ENE,4.6,-,N/A,,Partly Cloudy,70,2013-05-22 03:53:00
8:53 PM,62.1,12.9,15,30.16,10.0,ENE,5.8,-,N/A,,Partly Cloudy,70,2013-05-22 04:53:00
9:53 PM,61.0,15.1,17,30.15,10.0,East,4.6,-,N/A,,Partly Cloudy,80,2013-05-22 05:53:00
10:53 PM,55.0,18.0,23,30.14,10.0,Calm,Calm,-,N/A,,Partly Cloudy,0,2013-05-22 06:53:00
11:53 PM,48.0,26.1,42,30.13,10.0,Calm,Calm,-,N/A,,Partly Cloudy,0,2013-05-22 07:53:00